Regional Weather Roundup
Issued by NWS Bismarck, ND

Home | Current Version | Previous Version | Text Only | Print | Product List | Glossary On
Versions: 1 2 3 4 5 6 7 8 9 10 11 12 13 14 15 16 17 18 19 20 21 22 23 24 25 26 27 28 29 30 31 32 33 34 35 36 37 38 39 40 41 42 43 44 45 46 47 48 49 50
000
ASUS43 KBIS 010702
RWRBIS

NWR BROADCAST TEXT
NATIONAL WEATHER SERVICE BISMARCK ND
200 AM CDT WED JUL 01 2015

NOTE: "FAIR" INDICATES FEW OR NO CLOUDS BELOW 12,000 FEET WITH NO
SIGNIFICANT WEATHER AND/OR OBSTRUCTIONS TO VISIBILITY.


CITY           SKY/WX    TMP DP  RH WIND       PRES   REMARKS
WILLISTON      MOCLDY    63  60  90 N7        29.94R FOG
MINOT          PTCLDY    61  58  90 NW5       29.91R FOG
MINOT AFB      NOT AVBL
BISMARCK       CLEAR     64  63  96 SE10      29.90S FOG
DICKINSON      CLOUDY    63  61  93 E12       29.90S FOG
GARRISON         N/A     61  60  97 E3        29.91S
HETTINGER ARPT PTCLDY    62  59  90 E8        29.92S FOG
JAMESTOWN      LGT RAIN  64  61  90 SE9       29.90F
HAZEN          PTSUNNY   59  59 100 E6        29.91R
OAKES          LGT RAIN  63  63 100 E7        29.93S
STANLEY        FOG       61  61 100 CALM      29.95S VSB 1/2
$$

CITY           SKY/WX    TMP DP  RH WIND       PRES   REMARKS
GRAND FORKS    MOCLDY    61  58  90 E3        29.92R
GRAND FORKS AF PTCLDY    59  58  96 NE2       29.92S
DEVILS LAKE    PTCLDY    64  55  72 S6        29.92S
FARGO          CLOUDY    65  60  84 CALM      29.90F
CAVALIER       FAIR      59  57  94 CALM      29.93R
GRAFTON        FAIR      59  59 100 CALM      29.94R
LANGDON        FAIR      57  57 100 CALM      29.96R
$$

CITY           SKY/WX    TMP DP  RH WIND       PRES   REMARKS
ABERDEEN       CLOUDY    66  63  90 E7        29.89F FOG
MOBRIDGE       HVY RAIN  66  66 100 NE21      29.88R FOG
BUFFALO          N/A     65  61  87 S7        29.86R
RAPID CITY     PTCLDY    68  66  93 CALM      29.93R
SIDNEY         PTCLDY    64  59  82 CALM      29.93R
WOLF POINT     CLEAR     64  59  83 E6        29.92S HAZE
GLENDIVE       CLEAR     64  61  88 E7        29.92S
MILES CITY     CLEAR     72  53  51 N8        29.92R
BAKER          CLEAR     61  59  93 E7        29.93R
$$

CITY           SKY/WX    TMP DP  RH WIND       PRES   REMARKS
BILLINGS       PTCLDY    74  48  39 S3        30.06R
GREAT FALLS    CLEAR     67  52  58 E6        30.06R
$$



USA.gov is the U.S. government's official web portal to all federal, state and local government web resources and services.